User: anonymous   Login
Location: Newark
(41.6500°N, 71.4833°W)
Time: 21:44:06
(UTC+00:00)
Language:

Explorer 11/Cluster Stage 4 - Orbit

View from above orbital plane
View from above orbital plane
View from above satellite
View from above satellite

Ground track
Ground track

The orbit data is extracted from the following two-line orbital elements,

1   107U 61013A   20017.19917040 +.00000294 +00000-0 +19211-4 0  9993
2   107 028.7883 321.2976 0547119 146.2778 217.3865 14.08893584944737
Epoch (UTC): 17 January 2020 04:46:48
Eccentricity: 0.0547119
inclination: 28.7883°
perigee height: 467 km
apogee height: 1259 km
right ascension of ascending node: 321.2976°
argument of perigee: 146.2778°
revolutions per day: 14.08893584
mean anomaly at epoch: 217.3865°
orbit number at epoch: 94473

The dashed part of the orbit path shows where the satellite is in the earth's shadow,  

DLR